Torna al catalogo

COSMOS 2251 DEB

AttivoLEO
NORAD 34482·DEBRIS·🇷🇺 Russia

Lanciato Jun 16, 1993 da Plesetsk Cosmodrome

Loading…

Prossimi Passaggi (prossime 24 ore)

TLE

AggiornatoSource: Space-Track

Epoca: Sep 14, 2026, 09:41 UTC

1 34482U 93036UB  26257.40397876  .00006813  00000-0  10056-2 0  9990
2 34482  74.0353  46.9414 0040658  40.4183 350.1844 14.74896157922455

Traccia COSMOS 2251 DEB in tempo reale con AllMySat

Download on the App Store